But without faith it is impossible to please him: for he that cometh to God must believe that he is, and that he is a rewarder of them that diligently seek him.
Hebrews 11:6 KJ
pause

Enter Zip Code:

Current conditions for: Simi Valley, CA, US - Location: 34.26  -118.75 on Tue, 20 Mar 2007 9:51 pm PDT:
cloud or sun
cloud or sun
cloud or sun

Currently:
Cloudy
Visibility: 1,609.0 miles
Temp: 53° F     Humidity: 86%
Wind: Calm
Feels like: 53 ° F
Pressure: 30.01 in and rising
Sunrise: 6:59 am  Sunset: 7:06 pm
Forecast for Tue:
Showers Early
64° F / 47° F
Forecast for Wed:
Partly Cloudy
67° F / 47° F



Data courtesy of Yahoo! Weather

Enter 4 Letter Airport ID:

Current Observation for KDFW :

2019/04/21 02:53
KDFW 210253Z 16009KT 10SM FEW250 19/11 A2991 RMK AO2 SLP124 T01940111 53002

Forecast for KDFW :

2019/04/21 03:57
TAF 
      AMD KDFW 210255Z 2103/2206 17010KT P6SM SKC 
     FM211700 18023KT P6SM FEW250
GOES Pacific Coast Color Satellite View
GOES Pacific Coast Color Satellite View
GOES Hurricane Color Satellite View
GOES Hurricane Color Satellite View
  Movies and Other Links
(May take a while to load)
East Coast Movie
West Coast Movie
GOES East Full Disk
GOES West Full Disk
S Plains Radar View
Southern Plains Radar View
N Texas Radar View
Dallas Ft Worth Area View
Southern Rockies Radar View
North Texas - Oklahoma Radar View
CONUS Visible
CONUS Visible
CONUS IR
CONUS IR
CONUS Water Vapor
CONUS Water Vapor